Torna al catalogo

SPIRALE B

AttivoMilitareHEO
NORAD 33752·PAYLOAD·🇫🇷 France

Lanciato Feb 12, 2009 da Guiana Space Centre

Loading…

Prossimi Passaggi (prossime 24 ore)

TLE

AggiornatoSource: Space-Track

Epoca: Sep 14, 2026, 10:00 UTC

1 33752U 09008D   26257.41704481  .00002629  00000-0  77370-3 0  9994
2 33752   2.2408 313.2439 6637023 115.6015 324.6860  3.11899819170960

Traccia SPIRALE B in tempo reale con AllMySat

Download on the App Store